Retour au catalogue

STARLINK-37972

ActifCommunicationsSSO
NORAD 69708·PAYLOAD·🇺🇸 United States

Lancé Jun 28, 2026 depuis Vandenberg Space Force Base

Loading…

Prochains Passages (prochaines 24 heures)

TLE

FraisSource: CelesTrak SupGP

Époque: Sep 14, 2026, 21:14 UTC

1 69708C 26147E   26257.88520833  .00003749  00000+0  11639-3 0  2571
2 69708  97.2837 294.2750 0001170  91.9408 126.6171 15.33432198    11

Suivez STARLINK-37972 en temps réel avec AllMySat

Download on the App Store